Regional Weather Roundup
Issued by NWS

Home | Current Version | Previous Version | Graphics & Text | Print | Product List | Glossary On
Versions: 1 2 3 4 5 6 7 8 9 10 11 12 13 14 15 16 17 18 19 20 21 22 23 24 25 26 27 28 29 30 31 32 33 34 35 36 37 38 39 40 41 42 43 44 45 46 47 48 49 50
931
ASUS43 KOAX 281502
RWRNE

WEATHER ROUNDUP FOR NEBRASKA
NATIONAL WEATHER SERVICE OMAHA NE
1000 AM CDT WED JUN 28 2017

NOTES: SATELLITE DATA IS BEING USED TO AUGMENT CLOUD COVER ABOVE
       12000 FEET.
       "FAIR" INDICATES FEW OR NO CLOUDS BELOW 12,000 FEET WITH NO
       SIGNIFICANT WEATHER AND/OR OBSTRUCTIONS TO VISIBILITY.

  * THESE STATIONS DO NOT REPORT WEATHER SUCH AS RAIN...SNOW OR FOG.

NEZ001>004-019>022-054>056-281600-
NEBRASKA PANHANDLE

CITY           SKY/WX    TMP DP  RH WIND       PRES   REMARKS
SCOTTSBLUFF    SUNNY     69  50  50 W10       29.89R
ALLIANCE       SUNNY     68  54  60 W9        29.87S
CHADRON        SUNNY     71  51  49 N6        29.84S
GORDON         FAIR      69  54  57 NW13      29.83S
KIMBALL        SUNNY     72  45  38 N6        29.94S
SIDNEY         SUNNY     73  49  42 NW12      29.90S
$$

NEZ057>060-069>072-079>082-281600-
SOUTHWEST NEBRASKA

CITY           SKY/WX    TMP DP  RH WIND       PRES   REMARKS
NORTH PLATTE   SUNNY     75  58  55 NW13      29.79S
IMPERIAL       SUNNY     76  48  37 NW15      29.83F
LEXINGTON      SUNNY     75  63  67 W9        29.76F
MCCOOK         SUNNY     78  57  48 NW16      29.79R
OGALLALA       SUNNY     73  54  51 N15       29.84S
$$

NEZ005>010-023>029-035>040-094-281600-
NORTH CENTRAL NEBRASKA

CITY           SKY/WX    TMP DP  RH WIND       PRES   REMARKS
VALENTINE      SUNNY     76  53  44 NW12      29.75S
AINSWORTH      SUNNY     72  58  60 NW12G17   29.76S
BROKEN BOW     SUNNY     73  58  59 NW14      29.75S
O`NEILL        SUNNY     73  60  64 NW10      29.71S
ORD            SUNNY     75  58  55 NW9       29.71S
THEDFORD       SUNNY     74  55  51 NW14      29.80S
$$

NEZ041-046>049-061>064-073>077-083>087-281600-
SOUTH CENTRAL NEBRASKA

CITY           SKY/WX    TMP DP  RH WIND       PRES   REMARKS
GRAND ISLAND   SUNNY     79  65  62 SW14      29.74F
AURORA         SUNNY     78  64  60 SW10      29.74S
HASTINGS       SUNNY     78  61  55 SW7       29.76F
HEBRON         MOSUNNY   81  67  62 SW16G22   29.75F
HOLDREGE       SUNNY     76  62  61 SW10G18   29.77S
KEARNEY *      SUNNY     75  63  64 W15       29.76S
YORK           SUNNY     77  66  69 SW13      29.73F
$$

NEZ011>018-030>034-042>045-281600-
NORTHEAST NEBRASKA

CITY           SKY/WX    TMP DP  RH WIND       PRES   REMARKS
NORFOLK        CLOUDY    73  67  81 SW10      29.68F
ALBION         CLOUDY    72  65  79 SW7       29.71S
BLAIR          CLOUDY    74  68  82 S21G28    29.71S
FREMONT        CLOUDY    74  69  83 S16G23    29.71S
TEKAMAH        CLOUDY    76  68  76 S23G31    29.67F
WAYNE          CLOUDY    71  71  99 SW15      29.67S
$$

NEZ050>053-065>068-078-088>093-281600-
SOUTHEAST NEBRASKA

CITY           SKY/WX    TMP DP  RH WIND       PRES   REMARKS
LINCOLN        CLOUDY    78  70  76 S13       29.73S
OMAHA EPPLEY   CLOUDY    74  67  78 S16       29.71F
BEATRICE       SUNNY     79  69  72 S12       29.74F
FALLS CITY     CLOUDY    75  70  84 S8        29.77F
NEBRASKA CITY  CLOUDY    73  72  99 S15       29.75F
PLATTSMOUTH    MOSUNNY   74  69  83 S14G23    29.74F
$$

NEZ044-045-051>053-067-281600-
OMAHA AREA

CITY           SKY/WX    TMP DP  RH WIND       PRES   REMARKS
OMAHA EPPLEY   CLOUDY    74  67  78 S16       29.71F
BLAIR          CLOUDY    74  68  82 S21G28    29.71S
FREMONT        CLOUDY    74  69  83 S16G23    29.71S
MILLARD        CLOUDY    76  70  81 S8G18     29.72F
OFFUTT AFB     CLOUDY    74  68  79 S20       29.72F
PLATTSMOUTH    MOSUNNY   74  69  83 S14G23    29.74F
WAHOO          FAIR      77  71  83 S15       29.71F
$$




USA.gov is the U.S. government's official web portal to all federal, state and local government web resources and services.